Wind_Speed
25 25 24 24 24 24 25 25 25 26 26 26 24 24 25 25 24 24 26 26 27 28 29 29 29 28 28 27 26 26 25 25 25 26 27 27 29 30
23 23 22 22 22 22 22 22 22 23 24 26 26 25 25 25 24 23 23 24 25 26 27 28 29 29 28 27 26 25 25 25 24 24 24 25 26 27
21 21 20 20 20 19 20 19 20 21 22 23 24 24 24 25 25 23 22 22 23 23 24 25 27 27 28 27 27 26 25 25 24 24 23 23 23 24
20 20 19 19 18 18 18 18 18 19 21 22 22 23 24 25 25 25 23 22 21 21 22 22 23 25 26 27 27 27 26 26 26 25 24 24 23 22
19 20 19 19 18 18 17 18 18 18 20 22 23 24 24 26 27 27 25 24 23 22 21 21 22 22 24 25 25 26 26 27 27 27 26 26 25 24
20 20 20 20 19 18 17 17 18 17 18 19 21 23 23 25 27 28 29 28 27 26 24 24 23 23 24 24 25 25 26 26 27 27 28 28 27 27
20 21 20 21 20 20 19 18 18 18 19 19 20 21 22 24 26 28 29 31 30 29 28 28 27 26 26 26 26 26 27 27 27 27 28 29 29 29
21 21 21 22 22 21 21 21 20 20 19 20 20 21 21 21 23 26 28 30 31 31 32 31 30 30 30 30 30 29 29 30 30 30 31 31 32 32
22 22 23 23 23 23 22 23 22 22 21 21 21 21 21 21 21 23 25 27 30 32 33 34 34 34 33 33 33 34 34 34 34 34 34 34 35 35
23 22 22 22 23 23 23 23 23 23 23 23 22 22 22 23 22 22 23 25 27 29 30 33 36 37 36 35 36 37 37 37 37 37 37 37 37 37
23 22 22 21 22 23 23 22 22 22 23 23 23 23 23 23 24 24 25 26 26 28 29 31 34 37 38 38 38 38 40 40 41 40 40 40 40 39
23 22 21 20 20 21 21 21 21 21 21 21 22 22 23 23 24 24 25 26 27 29 30 32 33 34 35 38 39 39 40 41 42 42 43 43 43 42
22 21 21 20 19 19 19 19 19 19 19 19 20 21 21 22 23 24 24 25 26 28 29 30 31 32 33 34 36 37 39 41 42 44 45 45 45 45
22 22 21 20 20 19 18 17 17 17 17 17 18 19 20 21 22 23 24 25 26 27 29 30 31 31 32 33 34 36 37 39 42 44 45 46 46 47
20 20 20 20 20 19 17 16 15 15 15 16 16 17 19 20 21 23 24 26 27 28 30 31 32 32 33 34 35 35 36 37 39 40 42 44 45 45
16 17 18 18 18 17 17 16 14 14 14 15 16 17 18 19 20 21 23 24 26 27 28 30 31 33 33 35 35 36 37 37 38 38 39 41 42 42
9 11 13 14 15 15 15 15 14 13 13 14 14 15 16 17 18 20 21 22 24 25 27 29 30 31 33 34 35 36 37 38 38 39 40 40 41 42
3 5 8 9 10 11 11 10 10 10 10 11 11 12 14 15 16 18 19 21 24 26 27 29 30 32 33 34 36 36 37 38 39 40 40 41 42 43
8 7 7 7 7 7 6 5 4 4 5 6 7 9 10 12 15 17 19 22 24 26 28 29 30 31 33 34 35 36 37 38 40 41 42 42 43 44
17 15 14 12 11 10 8 6 4 2 1 3 5 7 9 11 14 16 18 20 23 25 26 27 28 29 31 32 34 36 37 38 39 40 42 43 44 45
22 21 20 18 16 14 12 10 8 7 5 5 6 7 9 10 12 14 16 18 20 21 22 24 25 26 27 29 30 32 33 35 36 38 39 40 41 43
24 23 22 21 19 17 15 13 12 11 10 9 9 9 10 11 12 14 16 18 19 20 21 23 24 24 25 26 28 29 30 32 33 34 36 37 38 39
23 22 21 19 18 17 15 14 13 13 12 12 12 12 12 13 14 15 16 18 19 20 21 22 23 23 24 25 26 27 28 29 31 32 34 35 36 37
Wind_Direction
273 272 271 270 268 268 267 267 265 264 258 253 254 251 246 246 247 246 245 245 246 246 246 245 244 244 245 245 246 246 247 250 252 254 253 252 251 250
271 270 269 268 266 266 266 264 262 259 251 249 250 250 245 242 244 246 245 245 245 245 245 244 244 244 245 246 246 246 248 251 253 254 253 252 251 249
269 268 267 266 265 266 265 263 260 254 249 245 246 245 242 240 241 244 245 246 245 245 245 244 245 246 246 247 248 248 250 251 252 253 252 250 249 248
268 267 266 264 264 263 262 260 258 255 250 245 242 243 241 237 238 241 244 244 244 244 245 245 246 248 249 250 251 251 251 251 252 252 251 249 247 248
269 267 265 264 262 261 260 255 254 256 252 245 243 244 243 238 237 239 242 243 244 244 244 246 246 248 249 251 252 252 252 252 253 253 252 251 251 250
269 266 264 263 262 261 259 256 253 254 253 247 244 244 243 240 239 240 242 244 245 245 245 246 247 248 249 251 252 253 254 255 255 255 254 254 254 254
269 266 263 262 261 259 258 256 253 253 254 251 248 248 246 245 244 242 243 244 244 246 248 248 248 250 251 252 252 254 255 256 256 257 257 257 256 257
269 266 263 261 259 257 256 255 253 253 253 251 251 253 251 252 252 249 248 245 245 248 249 248 250 252 253 253 254 255 256 257 257 257 257 258 258 258
269 266 263 261 260 258 256 254 252 252 253 254 255 256 256 257 259 256 253 252 250 250 250 250 252 254 256 256 256 256 257 258 258 258 257 258 259 259
268 267 264 261 260 258 256 255 253 252 252 253 255 256 257 258 261 261 259 258 257 256 254 253 253 254 256 257 258 258 258 259 260 259 259 258 258 259
268 265 263 261 258 256 255 254 254 254 253 254 255 257 258 260 261 262 261 260 259 258 257 259 260 259 258 258 259 260 259 259 260 260 260 260 259 260
266 263 260 259 256 255 253 252 252 253 254 255 255 257 258 259 261 262 262 262 262 262 262 264 265 264 263 262 262 262 261 260 260 261 261 261 261 261
265 261 257 255 253 252 251 250 250 252 254 255 257 258 259 260 261 262 262 262 262 262 263 265 267 268 268 268 266 264 263 262 261 262 262 262 262 262
263 260 254 251 248 248 249 249 249 252 256 258 260 262 263 263 264 265 266 266 266 266 267 267 269 270 271 271 270 268 266 264 263 262 262 261 262 262
263 258 251 247 245 242 243 246 248 251 256 262 267 269 270 270 271 271 271 270 269 270 270 271 271 272 272 273 273 272 270 269 267 265 263 261 260 259
262 254 247 242 238 236 237 242 246 252 260 267 271 274 276 277 278 277 277 276 276 276 276 275 276 276 275 275 274 274 273 273 272 269 267 265 263 260
258 242 232 230 230 231 234 240 247 255 264 271 275 278 280 282 284 284 284 283 282 282 281 281 281 280 279 278 277 276 275 274 273 272 271 271 270 268
219 205 204 207 213 218 223 233 244 256 266 273 279 283 286 288 290 290 290 290 290 289 288 287 286 284 283 281 280 278 277 276 275 274 272 271 270 270
91 122 145 158 167 177 188 202 222 247 269 285 293 296 298 299 300 300 299 298 297 296 294 293 291 289 287 286 283 281 280 279 277 276 274 273 271 270
84 93 102 110 116 120 121 117 111 96 14 336 328 322 318 316 315 312 310 308 306 304 302 300 297 294 292 289 287 286 283 282 280 279 277 275 274 272
83 86 90 93 96 97 94 89 81 70 50 24 5 352 345 339 336 333 330 327 322 319 317 314 310 306 302 298 295 292 289 287 285 282 280 278 276 275
81 83 85 87 87 86 83 78 74 67 59 50 41 31 19 10 3 357 351 345 339 334 329 325 321 317 313 309 305 301 297 294 291 288 285 282 279 277
77 78 79 79 79 79 77 75 71 66 61 54 48 40 31 23 15 9 4 360 355 350 345 341 337 333 328 323 318 314 308 303 299 296 292 288 284 281
Height
5816 5815 5814 5813 5812 5811 5811 5811 5812 5812 5813 5813 5815 5816 5818 5821 5823 5825 5827 5829 5831 5833 5835 5837 5839 5841 5842 5844 5845 5846 5847 5849 5850 5851 5851 5852 5854 5855
5809 5808 5807 5806 5806 5805 5804 5804 5804 5805 5806 5808 5809 5811 5812 5815 5817 5819 5821 5823 5825 5827 5829 5831 5833 5835 5837 5838 5839 5841 5842 5843 5844 5844 5845 5846 5847 5848
5802 5802 5801 5800 5800 5799 5799 5798 5798 5799 5800 5802 5804 5805 5807 5810 5812 5814 5816 5818 5820 5822 5823 5825 5827 5829 5831 5832 5834 5835 5836 5837 5838 5839 5840 5841 5841 5843
5796 5796 5795 5795 5795 5794 5793 5793 5793 5794 5795 5796 5798 5800 5802 5805 5807 5809 5811 5813 5815 5817 5818 5820 5821 5823 5825 5826 5828 5829 5830 5831 5832 5833 5834 5835 5836 5837
5790 5790 5790 5789 5789 5789 5789 5789 5789 5789 5790 5791 5793 5795 5796 5799 5801 5804 5806 5808 5810 5811 5813 5815 5816 5818 5819 5821 5822 5823 5824 5825 5827 5828 5829 5830 5831 5832
5785 5784 5784 5784 5784 5784 5784 5784 5784 5785 5785 5786 5788 5789 5791 5793 5795 5798 5800 5802 5804 5806 5808 5809 5811 5812 5813 5815 5816 5817 5818 5819 5820 5821 5822 5824 5825 5826
5779 5779 5778 5779 5779 5779 5779 5780 5780 5780 5781 5781 5783 5784 5786 5787 5789 5791 5793 5795 5798 5800 5802 5804 5805 5806 5807 5809 5810 5811 5812 5813 5813 5814 5816 5817 5818 5819
5772 5772 5772 5773 5773 5773 5774 5775 5775 5776 5777 5777 5778 5779 5780 5781 5782 5784 5786 5788 5791 5793 5794 5796 5798 5799 5800 5802 5803 5804 5805 5805 5806 5807 5808 5809 5810 5811
5765 5765 5766 5766 5767 5767 5768 5769 5770 5771 5772 5773 5774 5774 5776 5776 5777 5778 5779 5781 5783 5784 5786 5788 5790 5791 5792 5794 5795 5796 5796 5797 5798 5799 5799 5800 5801 5802
5759 5759 5759 5759 5760 5761 5762 5763 5764 5765 5767 5768 5769 5770 5770 5772 5772 5773 5773 5774 5775 5776 5777 5779 5781 5782 5783 5784 5785 5786 5787 5788 5788 5789 5790 5791 5792 5792
5752 5752 5753 5753 5754 5755 5756 5757 5759 5759 5761 5762 5763 5764 5765 5766 5767 5768 5768 5769 5769 5769 5770 5771 5771 5772 5773 5774 5775 5776 5777 5777 5778 5779 5780 5781 5781 5782
5745 5746 5746 5747 5748 5749 5750 5752 5753 5754 5755 5757 5758 5759 5760 5760 5761 5762 5762 5763 5762 5763 5763 5763 5763 5763 5763 5764 5764 5765 5766 5766 5767 5767 5768 5769 5770 5771
5738 5739 5740 5741 5742 5743 5745 5746 5748 5749 5750 5752 5753 5753 5754 5755 5755 5756 5756 5756 5756 5756 5756 5756 5755 5755 5754 5754 5754 5754 5754 5755 5755 5756 5756 5757 5758 5759
5731 5732 5734 5735 5737 5739 5740 5742 5743 5745 5746 5747 5748 5749 5749 5750 5750 5750 5750 5750 5750 5750 5749 5748 5748 5747 5746 5745 5745 5744 5744 5744 5744 5744 5744 5744 5745 5745
5724 5725 5727 5729 5732 5734 5736 5738 5740 5741 5743 5743 5744 5745 5745 5745 5745 5745 5744 5744 5743 5742 5741 5741 5740 5739 5738 5737 5736 5735 5734 5733 5732 5732 5732 5731 5732 5732
5717 5718 5720 5723 5727 5730 5733 5735 5737 5738 5739 5740 5740 5741 5741 5740 5740 5740 5739 5738 5737 5736 5734 5733 5732 5730 5729 5727 5726 5725 5723 5722 5721 5720 5720 5719 5719 5718
5711 5713 5716 5719 5723 5726 5729 5732 5734 5735 5736 5737 5737 5737 5737 5736 5735 5735 5733 5732 5731 5729 5728 5726 5724 5721 5720 5718 5716 5715 5713 5711 5710 5709 5708 5707 5706 5706
5709 5711 5714 5717 5720 5723 5726 5729 5731 5733 5733 5734 5734 5734 5733 5733 5731 5730 5729 5727 5725 5723 5720 5718 5715 5713 5710 5708 5706 5704 5702 5700 5698 5697 5696 5695 5694 5693
5710 5712 5714 5717 5720 5723 5726 5728 5730 5731 5732 5732 5732 5731 5731 5729 5728 5726 5724 5721 5719 5716 5713 5709 5706 5703 5700 5698 5695 5692 5690 5688 5686 5684 5682 5681 5680 5679
5716 5716 5718 5720 5723 5725 5727 5729 5730 5731 5731 5731 5731 5730 5728 5727 5724 5722 5719 5716 5712 5709 5705 5701 5698 5694 5691 5688 5684 5681 5678 5675 5673 5670 5668 5667 5665 5664
5724 5724 5725 5726 5727 5729 5730 5731 5732 5732 5731 5731 5729 5728 5726 5724 5722 5719 5715 5712 5707 5703 5699 5694 5690 5686 5682 5678 5674 5670 5667 5663 5660 5657 5655 5653 5651 5649
5732 5732 5732 5733 5733 5734 5734 5734 5734 5733 5732 5731 5729 5727 5725 5723 5720 5716 5713 5709 5704 5699 5694 5689 5684 5680 5675 5670 5666 5661 5657 5653 5649 5645 5642 5639 5636 5634
5741 5740 5739 5739 5739 5738 5738 5737 5736 5735 5734 5732 5730 5728 5725 5722 5719 5715 5711 5706 5701 5696 5691 5685 5680 5675 5669 5664 5658 5653 5648 5643 5639 5634 5630 5626 5623 5621